Simultaneous Nadir Overpasses (SNOs) Predictions

Prediction of SNOs between AQUA and GOES-15 Satellite Orbit:

Table of predicted SNOs for the next 14.0 days since TLE Epoch: 7/31/2020
Index Date Time (AQUA) AQUA Lat,Lon GOES-15 Lat,Lon Distance(km) Time Diff (sec)
1 08/01/2020 22:10:21 -0.06,-128.65 0.01,-128.33 36.68 80
2 08/03/2020 21:58:10 0.59,-125.70 0.01,-128.31 297.42 80
3 08/04/2020 10:19:25 0.55,-130.85 -0.01,-128.36 283.18 80
4 08/06/2020 10:07:14 -0.11,-127.90 -0.01,-128.34 50.82 80
5 08/08/2020 09:55:02 -0.70,-124.93 -0.00,-128.32 384.64 80
6 08/08/2020 22:16:26 -0.41,-130.12 0.01,-128.25 212.88 80
7 08/10/2020 22:04:15 0.25,-127.17 0.01,-128.23 120.39 80
8 08/11/2020 10:25:30 0.88,-132.32 -0.01,-128.28 460.23 1
9 08/12/2020 21:52:03 0.85,-124.21 0.01,-128.19 452.96 80
10 08/13/2020 10:13:19 0.22,-129.37 -0.00,-128.24 127.82 80
